Tillbaka till svenska Fidonet
English   Information   Debug  
FILM   0/18
FNEWS_PUBLISH   4881
FN_SYSOP   42085
FN_SYSOP_OLD1   71952
FTP_FIDO   0/2
FTSC_PUBLIC   0/13950
FUNNY   0/4886
GENEALOGY.EUR   0/71
GET_INFO   105
GOLDED   0/408
HAM   15534/16617
HOLYSMOKE   0/6791
HOT_SITES   0/1
HTMLEDIT   0/71
HUB203   466
HUB_100   264
HUB_400   39
HUMOR   0/29
IC   2260/2851
INTERNET   0/424
INTERUSER   0/3
IP_CONNECT   719
JAMNNTPD   0/233
JAMTLAND   0/47
KATTY_KORNER   0/41
LAN   0/16
LINUX-USER   0/19
LINUXHELP   0/1155
LINUX   0/22287
LINUX_BBS   0/957
mail   18.68
mail_fore_ok   249
MENSA   0/341
MODERATOR   0/102
MONTE   0/992
MOSCOW_OKLAHOMA   0/1245
MUFFIN   0/783
MUSIC   0/321
N203_STAT   938
N203_SYSCHAT   313
NET203   321
NET204   69
NET_DEV   0/10
NORD.ADMIN   0/101
NORD.CHAT   0/2572
NORD.FIDONET   189
NORD.HARDWARE   0/28
NORD.KULTUR   0/114
NORD.PROG   0/32
NORD.SOFTWARE   0/88
NORD.TEKNIK   0/58
NORD   0/453
OCCULT_CHAT   0/93
OS2BBS   0/787
OS2DOSBBS   0/580
OS2HW   0/42
OS2INET   0/37
OS2LAN   0/134
OS2PROG   0/36
OS2REXX   0/113
OS2USER-L   207
OS2   0/4829
OSDEBATE   4953/18996
PASCAL   0/490
PERL   0/457
PHP   0/45
POINTS   0/405
POLITICS   0/29554
POL_INC   2312/14731
PSION   103
R20_ADMIN   1133
R20_AMATORRADIO   0/2
R20_BEST_OF_FIDONET   16
R20_CHAT   0/896
R20_DEPP   0/3
R20_DEV   400
R20_ECHO2   1789
R20_ECHOPRES   0/35
R20_ESTAT   0/719
R20_FIDONETPROG...
...RAM.MYPOINT
  0/2
R20_FIDONETPROGRAM   0/22
R20_FIDONET   0/248
R20_FILEFIND   0/24
R20_FILEFOUND   0/22
R20_HIFI   0/3
R20_INFO2   3681
R20_INTERNET   0/12940
R20_INTRESSE   0/60
R20_INTR_KOM   0/99
R20_KANDIDAT.CHAT   42
R20_KANDIDAT   28
R20_KOM_DEV   112
R20_KONTROLL   0/13360
R20_KORSET   0/18
R20_LOKALTRAFIK   0/24
R20_MODERATOR   0/1852
R20_NC   76
R20_NET200   245
R20_NETWORK.OTH...
...ERNETS
  0/13
R20_OPERATIVSYS...
...TEM.LINUX
  0/44
R20_PROGRAMVAROR   0/1
R20_REC2NEC   534
R20_SFOSM   0/341
R20_SF   0/108
R20_SPRAK.ENGLISH   0/1
R20_SQUISH   107
R20_TEST   2
R20_WORST_OF_FIDONET   20
RAR   0/9
RA_MULTI   106
RA_UTIL   0/162
REGCON.EUR   0/2067
REGCON   0/13
SCIENCE   0/1206
SF   0/239
SHAREWARE_SUPPORT   0/5146
SHAREWRE   0/14
SIMPSONS   0/169
STATS_OLD1   0/2539.065
STATS_OLD2   0/2530
STATS_OLD3   0/2395.095
STATS_OLD4   0/1692.25
SURVIVOR   0/495
SYSOPS_CORNER   0/3
SYSOP   0/84
TAGLINES   0/112
TEAMOS2   0/4530
TECH   0/2617
TEST.444   0/105
TRAPDOOR   0/19
TREK   0/755
TUB   0/290
UFO   0/40
UNIX   0/1316
USA_EURLINK   0/102
USR_MODEMS   0/1
VATICAN   0/2740
VIETNAM_VETS   0/14
VIRUS   0/378
VIRUS_INFO   0/201
VISUAL_BASIC   0/473
WHITEHOUSE   0/5187
WIN2000   0/101
WIN32   0/30
WIN95   0/4291
WIN95_OLD1   0/70272
WINDOWS   0/1517
WWB_SYSOP   0/419
WWB_TECH   0/810
ZCC-PUBLIC   0/1
ZEC   4

 
4DOS   0/134
ABORTION   0/7
ALASKA_CHAT   0/506
ALLFIX_FILE   0/1313
ALLFIX_FILE_OLD1   0/7997
ALT_DOS   0/152
AMATEUR_RADIO   0/1039
AMIGASALE   0/14
AMIGA   0/331
AMIGA_INT   0/1
AMIGA_PROG   0/20
AMIGA_SYSOP   0/26
ANIME   0/15
ARGUS   0/924
ASCII_ART   0/340
ASIAN_LINK   0/651
ASTRONOMY   0/417
AUDIO   0/92
AUTOMOBILE_RACING   0/105
BABYLON5   0/17862
BAG   135
BATPOWER   0/361
BBBS.ENGLISH   0/382
BBSLAW   0/109
BBS_ADS   0/5290
BBS_INTERNET   0/507
BIBLE   0/3563
BINKD   0/1119
BINKLEY   0/215
BLUEWAVE   0/2173
CABLE_MODEMS   0/25
CBM   0/46
CDRECORD   0/66
CDROM   0/20
CLASSIC_COMPUTER   0/378
COMICS   0/15
CONSPRCY   0/899
COOKING   41026
COOKING_OLD1   18670/24719
COOKING_OLD2   0/40862
COOKING_OLD3   0/37489
COOKING_OLD4   15107/35496
COOKING_OLD5   9370
C_ECHO   0/189
C_PLUSPLUS   0/31
DIRTY_DOZEN   0/201
DOORGAMES   0/2253
DOS_INTERNET   0/196
duplikat   6102
ECHOLIST   0/18295
EC_SUPPORT   0/318
ELECTRONICS   0/359
ELEKTRONIK.GER   1534
ENET.LINGUISTIC   0/13
ENET.POLITICS   0/4
ENET.SOFT   0/11701
ENET.SYSOP   34255
ENET.TALKS   0/32
ENGLISH_TUTOR   0/2000
EVOLUTION   0/1335
FDECHO   0/217
FDN_ANNOUNCE   0/7068
FIDONEWS   24978
FIDONEWS_OLD1   0/49742
FIDONEWS_OLD2   0/35949
FIDONEWS_OLD3   0/30874
FIDONEWS_OLD4   0/37224
FIDO_SYSOP   12920
FIDO_UTIL   0/180
FILEFIND   0/209
FILEGATE   0/212
Möte HAM, 16617 texter
 lista första sista föregående nästa
Text 905, 763 rader
Skriven 2006-03-17 00:30:48 av Amsat List (1:323/120.0)
Ärende: 
========
SB KEPS @ AMSAT  $ORB06075.O
Orbital Elements  06075.OSCAR

HR AMSAT ORBITAL ELEMENTS FOR OSCAR SATELLITES
FROM WA5QGD FORT WORTH,TX March 16, 2006
Send SUBSCRIBE KEPS/UNSUBSCRIBE KEPS to majordomo@amsat.org only
BID: ORB06075.O
TO ALL RADIO AMATEURS BT

Satellite: AO-07
Catalog number: 07530
Epoch time:      06074.97267561
Element set:    0570
Inclination:      101.5819 deg
RA of node:       120.1897 deg
Eccentricity:    0.0012162
Arg of perigee:   067.6706 deg
Mean anomaly:     292.5656 deg
Mean motion:   12.53572070 rev/day
Decay rate:       -2.8e-07 rev/day^2
Epoch rev:           43370
Checksum:              297

Satellite: AO-10
Catalog number: 14129
Epoch time:      06075.03614528
Element set:     267
Inclination:      027.4538 deg
RA of node:       344.5152 deg
Eccentricity:    0.6029793
Arg of perigee:   269.3184 deg
Mean anomaly:     025.7858 deg
Mean motion:   02.05863016 rev/day
Decay rate:       3.29e-06 rev/day^2
Epoch rev:           17113
Checksum:              305

Satellite: UO-11
Catalog number: 14781
Epoch time:      06074.57698766
Element set:    0017
Inclination:      098.2098 deg
RA of node:       082.7964 deg
Eccentricity:    0.0008648
Arg of perigee:   200.9197 deg
Mean anomaly:     159.1680 deg
Mean motion:   14.79390552 rev/day
Decay rate:       -1.1e-07 rev/day^2
Epoch rev:           18192
Checksum:              338

Satellite: RS-10/11
Catalog number: 18129
Epoch time:      06074.96348043
Element set:    0952
Inclination:      082.9238 deg
RA of node:       037.1073 deg
Eccentricity:    0.0012343
Arg of perigee:   000.1883 deg
Mean anomaly:     359.9271 deg
Mean motion:   13.72771914 rev/day
Decay rate:        3.5e-07 rev/day^2
Epoch rev:           93836
Checksum:              306

Satellite: RS-15
Catalog number: 23439
Epoch time:      06074.97840142
Element set:    0999
Inclination:      064.8202 deg
RA of node:       027.9712 deg
Eccentricity:    0.0168128
Arg of perigee:   269.9982 deg
Mean anomaly:     088.1675 deg
Mean motion:   11.27552196 rev/day
Decay rate:       -3.9e-07 rev/day^2
Epoch rev:           46203
Checksum:              340

Satellite: FO-29
Catalog number: 24278
Epoch time:      06074.91500577
Element set:    0184
Inclination:      098.5151 deg
RA of node:       092.3334 deg
Eccentricity:    0.0350494
Arg of perigee:   191.6057 deg
Mean anomaly:     167.6848 deg
Mean motion:   13.52919925 rev/day
Decay rate:       -7.0e-08 rev/day^2
Epoch rev:           47293
Checksum:              336

Satellite: SO-33
Catalog number: 25509
Epoch time:      06074.91252675
Element set:    0605
Inclination:      031.4323 deg
RA of node:       296.5945 deg
Eccentricity:    0.0355270
Arg of perigee:   021.0645 deg
Mean anomaly:     340.4218 deg
Mean motion:   14.28077602 rev/day
Decay rate:        7.3e-07 rev/day^2
Epoch rev:           38569
Checksum:              299

Satellite: AO-40
Catalog number: 26609
Epoch time:      06070.60561842
Element set:     688
Inclination:      007.2164 deg
RA of node:       251.5769 deg
Eccentricity:    0.7925492
Arg of perigee:   139.7038 deg
Mean anomaly:     319.0961 deg
Mean motion:   01.25583643 rev/day
Decay rate:      -3.75e-06 rev/day^2
Epoch rev:            2462
Checksum:              324

Satellite: VO-52
Catalog number: 28650
Epoch time:      06075.76866592
Element set:     278
Inclination:      097.8785 deg
RA of node:       150.4228 deg
Eccentricity:    0.0026477
Arg of perigee:   303.9695 deg
Mean anomaly:     055.9020 deg
Mean motion:   14.81064611 rev/day
Decay rate:       2.59e-06 rev/day^2
Epoch rev:            4670
Checksum:              335

/EX
SB KEPS @ AMSAT  $ORB06075.D
Orbital Elements  06075.MICROS

HR AMSAT ORBITAL ELEMENTS FOR THE MICROSATS
FROM WA5QGD FORT WORTH,TX March 16, 2006
Send SUBSCRIBE KEPS/UNSUBSCRIBE KEPS to majordomo@amsat.org only
BID: ORB06075.D
TO ALL RADIO AMATEURS BT

Satellite: AO-16
Catalog number: 20439
Epoch time:      06075.47999443
Element set:     697
Inclination:      098.1918 deg
RA of node:       090.6182 deg
Eccentricity:    0.0011886
Arg of perigee:   108.7388 deg
Mean anomaly:     251.5145 deg
Mean motion:   14.31713524 rev/day
Decay rate:        2.5e-07 rev/day^2
Epoch rev:           84305
Checksum:              327

Satellite: WO-18
Catalog number: 20441
Epoch time:      06074.91190273
Element set:    0899
Inclination:      098.1969 deg
RA of node:       094.6777 deg
Eccentricity:    0.0012086
Arg of perigee:   108.5932 deg
Mean anomaly:     251.6569 deg
Mean motion:   14.31784212 rev/day
Decay rate:        6.0e-08 rev/day^2
Epoch rev:           84303
Checksum:              325

Satellite: LO-19
Catalog number: 20442
Epoch time:      06075.52589144
Element set:     635
Inclination:      098.1994 deg
RA of node:       100.0526 deg
Eccentricity:    0.0012684
Arg of perigee:   107.4155 deg
Mean anomaly:     252.8418 deg
Mean motion:   14.31957213 rev/day
Decay rate:        1.1e-07 rev/day^2
Epoch rev:           84319
Checksum:              294

Satellite: UO-22
Catalog number: 21575
Epoch time:      06075.81435605
Element set:     650
Inclination:      098.2842 deg
RA of node:       036.4723 deg
Eccentricity:    0.0007664
Arg of perigee:   356.7494 deg
Mean anomaly:     003.3638 deg
Mean motion:   14.39537702 rev/day
Decay rate:        9.0e-08 rev/day^2
Epoch rev:           76972
Checksum:              320

Satellite: KO-23
Catalog number: 22077
Epoch time:      06074.85024592
Element set:     737
Inclination:      066.0873 deg
RA of node:       297.5247 deg
Eccentricity:    0.0004628
Arg of perigee:   188.3006 deg
Mean anomaly:     171.7934 deg
Mean motion:   12.86435704 rev/day
Decay rate:       -3.7e-07 rev/day^2
Epoch rev:           63853
Checksum:              323

